Vorticity
nan nan nan nan nan nan nan nan nan nan nan nan nan nan nan nan nan nan nan nan nan nan nan nan nan nan nan nan nan nan nan nan nan nan nan nan nan nan nan nan nan nan nan nan nan
nan 4 4 8 10 7 6 4 4 6 11 9 5 7 7 10 12 7 5 4 5 10 14 12 9 6 6 6 8 8 7 7 5 6 8 9 10 8 9 1 3 10 20 15 nan
nan 6 4 5 8 9 7 6 4 5 13 10 7 9 8 11 11 8 5 7 7 7 9 8 10 9 5 6 9 6 6 8 5 7 11 9 5 10 5 4 13 13 11 2 nan
nan 7 5 5 5 8 9 7 5 4 12 12 7 8 10 14 8 6 6 8 8 9 10 9 12 11 5 5 6 6 6 5 7 5 9 11 4 6 4 14 18 15 5 3 nan
nan 7 6 4 5 6 8 8 7 5 12 11 7 8 9 8 11 9 11 6 5 12 8 11 10 9 10 6 4 7 5 3 8 8 9 11 10 6 3 15 16 11 8 5 nan
nan 6 7 5 5 6 6 8 8 6 6 12 11 6 9 6 12 10 4 6 5 7 7 9 10 9 10 12 7 5 7 6 9 11 12 10 7 6 13 14 11 7 5 6 nan
nan 6 10 7 4 5 6 7 9 7 6 12 11 3 7 13 9 6 8 9 7 7 7 7 9 12 7 7 9 8 7 11 10 11 8 8 10 7 12 15 7 3 5 7 nan
nan 11 9 8 5 5 7 8 9 8 8 13 12 3 6 15 9 8 8 6 6 9 8 7 8 9 7 8 12 7 8 8 2 11 12 12 8 8 13 10 5 5 7 8 nan
nan 13 7 7 7 5 6 9 10 8 13 18 11 7 10 8 6 6 6 7 5 6 8 8 8 8 10 7 3 11 11 7 5 4 11 11 10 11 10 8 7 7 7 7 nan
nan 12 8 6 5 5 9 14 14 10 9 11 9 10 13 5 10 8 11 4 6 6 8 7 7 7 11 12 6 9 6 8 6 1 12 10 7 7 12 12 8 6 7 8 nan
nan 11 8 6 5 5 11 11 9 10 11 9 6 6 5 10 12 9 9 6 5 7 10 8 9 10 7 6 17 13 6 3 5 7 9 9 7 3 9 12 11 8 8 8 nan
nan 9 8 7 9 13 9 7 7 8 8 10 8 6 8 11 7 11 7 7 6 7 6 9 10 13 10 8 18 12 3 0 4 10 8 7 10 10 11 12 11 9 10 9 nan
nan 10 6 14 14 12 6 8 9 7 9 10 7 4 7 10 13 15 6 5 8 9 8 3 12 11 8 7 6 13 10 3 5 6 4 7 9 11 11 11 10 9 11 12 nan
nan 12 14 12 8 8 9 12 8 9 9 10 11 8 9 6 10 15 10 6 14 12 5 5 15 9 4 8 9 5 15 13 8 9 4 8 10 4 9 6 13 10 9 11 nan
nan 13 13 5 7 8 7 10 9 10 9 12 7 9 14 7 9 9 10 14 11 10 7 12 12 11 7 6 8 12 14 13 8 8 8 7 10 7 7 7 6 14 12 4 nan
nan 12 5 6 9 6 9 10 11 9 10 10 10 10 6 7 9 8 5 8 8 10 10 10 10 11 13 16 9 8 0 4 11 11 10 11 7 8 9 7 0 6 6 11 nan
nan 9 8 10 7 6 11 11 12 7 9 10 9 15 9 6 7 9 9 5 10 9 8 6 9 12 12 9 10 3 -1 2 9 9 11 12 7 9 16 16 13 7 2 7 nan
nan 2 7 7 8 11 10 10 8 7 9 8 10 14 14 8 9 12 6 3 9 7 12 9 8 7 9 8 12 3 0 10 12 8 10 9 7 9 9 13 21 17 12 8 nan
nan 5 7 5 12 13 9 11 9 6 6 9 13 11 9 9 15 10 8 8 9 7 6 6 8 9 10 16 7 3 8 8 5 9 13 8 6 10 9 9 10 9 9 9 nan
nan 10 4 8 13 13 11 9 8 8 11 10 9 10 13 12 11 12 6 7 11 9 6 8 7 10 10 10 8 13 9 5 10 13 8 10 9 10 9 8 9 8 7 8 nan
nan 11 6 12 13 9 11 8 7 12 10 8 9 10 10 11 11 12 7 6 9 10 12 11 7 10 10 10 11 6 7 8 13 9 9 9 9 13 12 8 7 7 9 7 nan
nan 6 10 12 9 9 8 8 8 10 11 12 9 10 10 8 10 12 9 7 12 10 11 8 9 13 7 7 10 11 10 7 9 8 7 9 8 14 16 11 7 8 9 10 nan
nan 8 9 13 8 9 10 9 9 9 11 8 9 9 12 12 9 9 8 9 11 13 12 8 8 8 6 8 17 14 9 8 7 14 12 8 13 9 7 8 10 12 8 8 nan
nan 7 9 11 11 12 8 8 10 10 9 11 11 10 8 9 11 13 6 8 11 8 12 13 15 13 10 8 12 12 8 7 6 9 12 9 13 10 9 7 8 8 7 7 nan
nan 14 10 3 8 10 10 8 7 8 8 10 13 15 15 9 8 9 11 8 6 11 12 10 10 7 10 13 17 17 9 6 7 10 12 18 11 7 10 9 9 8 6 7 nan
nan 8 11 10 8 8 8 12 10 7 10 12 9 9 16 10 12 12 8 10 10 11 10 11 10 7 4 11 15 12 12 10 8 8 11 11 8 10 11 10 10 10 9 7 nan
nan nan nan nan nan nan nan nan nan nan nan nan nan nan nan nan nan nan nan nan nan nan nan nan nan nan nan nan nan nan nan nan nan nan nan nan nan nan nan nan nan nan nan nan nan
CAPE
0 0 8 32 4 0 0 19 19 50 2 0 0 2 3 0 0 0 0 0 2 0 0 0 0 0 0 0 0 0 0 0 0 0 0 0 0 0 0 0 0 0 0 0 0
0 0 0 9 33 13 0 0 9 8 66 3 0 1 3 1 0 0 0 1 2 0 0 0 0 0 0 0 0 0 0 0 0 0 0 0 0 0 0 0 2 0 0 0 0
0 0 0 0 12 26 18 0 0 0 38 39 14 2 8 7 0 0 0 0 0 0 0 0 0 0 0 0 0 0 0 0 0 0 0 0 0 0 0 0 1 16 0 0 0
16 0 0 0 0 14 27 3 0 0 53 38 32 7 0 1 0 0 0 0 0 0 0 0 0 0 1 0 0 0 0 0 0 0 0 0 0 0 0 0 0 7 0 0 0
17 8 0 0 0 0 7 40 0 0 20 85 47 14 24 7 0 0 0 0 0 0 0 0 0 0 2 0 0 0 0 0 0 0 0 0 0 0 0 0 19 38 22 8 0
25 27 10 0 0 0 0 1 44 0 4 89 88 51 18 4 0 0 0 0 0 0 0 0 0 0 0 0 0 0 0 0 0 0 0 0 0 0 0 0 41 84 51 25 4
76 68 37 1 0 0 0 0 51 0 0 56 111 16 18 6 0 0 0 0 0 0 0 0 0 0 0 0 0 0 0 0 0 0 0 0 0 0 0 0 127 103 40 1 14
101 93 63 38 0 0 0 0 43 0 5 46 113 18 19 0 0 2 6 0 0 0 0 0 0 0 0 0 0 0 0 0 0 0 0 0 0 0 0 0 110 80 16 19 37
160 156 91 30 0 0 0 26 57 0 95 128 81 38 0 45 37 9 10 1 0 0 0 0 0 0 0 0 0 0 0 0 0 0 0 0 0 0 0 0 0 22 21 32 49
162 172 126 41 56 9 7 83 14 56 26 49 55 4 3 3 11 17 30 21 0 0 0 12 0 0 1 1 0 0 0 0 0 0 0 0 0 0 0 0 0 0 0 0 11
295 210 137 69 87 44 66 0 0 0 26 0 36 8 0 0 1 55 55 33 21 3 0 5 1 0 0 0 0 0 0 0 0 0 0 0 0 0 0 0 0 0 0 0 0
403 242 178 146 125 189 3 1 0 0 0 1 20 13 10 0 0 21 61 3 8 1 1 7 4 0 0 0 0 0 0 0 0 0 0 0 0 0 0 0 0 0 0 0 0
371 440 332 215 337 87 1 28 59 1 6 19 32 24 25 3 0 2 50 9 2 10 11 2 3 10 0 2 1 0 0 0 0 0 0 0 0 0 0 0 0 0 0 0 0
301 386 324 412 17 0 2 91 42 1 0 0 13 43 12 14 0 19 26 26 50 19 6 16 0 21 11 2 4 2 0 0 0 0 0 0 0 0 0 0 0 0 0 0 0
284 308 325 49 1 67 73 39 7 0 23 0 21 13 17 7 0 0 0 0 32 16 24 1 1 6 14 3 0 3 0 0 0 0 0 0 0 0 0 0 0 0 0 0 0
250 343 203 18 33 7 0 9 0 0 0 2 18 67 12 0 1 0 0 0 0 0 0 0 0 3 15 4 0 0 0 0 0 1 0 0 0 0 0 0 0 0 0 0 0
411 164 3 0 4 0 6 0 0 0 0 1 3 5 12 7 6 3 0 3 8 1 3 1 0 0 0 1 0 1 0 0 0 0 0 0 0 0 0 0 0 0 0 0 0
24 0 0 0 0 0 0 0 0 0 0 5 5 5 17 13 12 7 0 5 3 0 9 0 0 0 0 0 1 3 0 0 0 0 0 0 0 0 0 0 0 0 0 0 0
2 0 0 0 0 0 0 0 0 0 2 4 5 3 1 0 5 4 1 0 2 0 1 2 1 0 0 0 0 0 0 0 0 0 0 0 0 0 0 0 0 0 0 0 0
0 0 0 0 0 0 0 0 0 4 3 8 0 1 0 0 0 4 0 0 0 0 1 0 0 0 0 0 0 0 0 0 0 0 0 0 0 0 0 0 0 0 0 0 0
0 0 0 0 0 0 0 0 2 5 6 7 1 0 2 0 0 0 0 2 0 0 2 0 0 0 4 0 0 0 0 0 0 0 0 0 0 0 0 0 0 0 0 0 0
0 0 0 0 0 0 0 0 8 3 3 6 12 4 2 0 0 0 2 5 2 0 6 0 0 0 0 0 0 0 0 0 0 0 0 0 0 0 0 0 0 0 0 0 0
0 0 0 0 0 0 0 0 0 0 0 0 3 9 2 2 0 2 2 7 4 0 0 0 0 0 1 0 0 0 0 0 0 0 0 0 0 0 0 0 0 0 0 0 0
0 0 0 0 0 0 0 0 0 0 0 0 0 1 1 0 0 4 10 8 3 1 0 0 0 0 0 0 0 0 0 0 0 0 0 0 0 0 0 0 0 0 0 0 0
0 0 0 0 0 0 0 0 0 0 0 0 0 0 0 0 0 0 1 9 5 4 0 0 0 0 0 0 0 0 0 0 0 0 0 0 0 0 0 0 0 0 0 0 0
0 0 0 0 0 0 0 0 0 0 0 0 0 0 0 0 0 0 0 0 3 4 2 3 1 0 0 0 0 0 0 0 0 0 0 0 0 0 0 0 0 0 0 0 0
0 0 0 0 0 0 0 0 0 0 0 0 0 0 0 0 0 0 0 1 4 1 1 0 0 0 0 0 0 0 0 0 0 0 0 1 0 0 0 0 0 0 0 0 0